EW9826 Weather Reports


time (UTC)temp
F
wind
direction
speed
knots
gust
knots
rain 1hr
in
rain 24hr
in
rain mn
in
humidity
%
barometer
mb
20260504032007 53 215 0.0 0.0 0.00 0.11 0.00 96 1011.6
20260504031508 53 215 0.9 1.7 0.00 0.11 0.00 96 1011.7
20260504031008 53 215 0.0 1.7 0.00 0.11 0.00 96 1011.7
20260504025008 53 215 0.0 0.0 0.00 0.14 0.00 95 1011.7
20260504024507 53 215 0.0 0.0 0.00 0.15 0.00 95 1011.6
20260504024007 53 215 0.0 0.0 0.00 0.15 0.00 95 1011.6
20260504023507 53 215 0.0 0.0 0.00 0.16 0.00 95 1011.4
20260504023007 53 215 0.0 0.0 0.00 0.16 0.00 95 1011.3
20260504015507 54 215 0.0 0.0 0.00 0.16 0.00 95 1011.2
20260504015007 54 215 0.0 0.0 0.00 0.17 0.00 95 1011.2
20260504013507 54 215 0.0 0.0 0.00 0.18 0.00 95 1011.4
20260504013007 54 215 0.0 0.0 0.00 0.18 0.00 95 1011.4
20260504012507 54 215 0.0 0.0 0.00 0.18 0.00 95 1011.5
20260504012008 54 215 0.0 0.0 0.00 0.18 0.00 95 1011.5
20260504011507 54 215 0.0 0.0 0.00 0.18 0.00 94 1011.4
20260504011007 54 215 0.0 0.0 0.00 0.18 0.00 94 1011.5
20260504010007 54 215 0.0 0.0 0.00 0.18 0.00 94 1011.4
20260504003007 55 215 0.0 0.0 0.00 0.18 0.00 94 1011.4
20260504002507 55 215 0.0 0.0 0.00 0.18 0.00 94 1011.4
20260504002007 55 215 0.0 0.0 0.00 0.18 0.00 94 1011.4
20260504001507 55 215 0.0 0.9 0.00 0.18 0.00 94 1011.4
20260504001007 55 215 1.7 2.6 0.00 0.18 0.00 94 1011.4
20260504000007 56 215 1.7 2.6 0.00 0.18 0.00 94 1011.6
20260503235507 56 215 0.0 1.7 0.00 0.18 0.00 94 1011.6
20260503234506 56 215 0.0 1.7 0.00 0.18 0.00 94 1011.6
20260503234006 56 215 1.7 2.6 0.00 0.18 0.00 94 1011.6
20260503233507 56 215 0.9 2.6 0.00 0.19 0.00 94 1011.5
20260503233007 56 215 0.9 2.6 0.00 0.19 0.00 94 1011.6
20260503232506 56 215 0.9 2.6 0.00 0.20 0.00 94 1011.7
20260503232006 56 215 1.7 2.6 0.00 0.20 0.00 94 1011.7
20260503231507 56 215 1.7 2.6 0.00 0.20 0.00 94 1011.7
20260503225007 57 215 0.9 2.6 0.00 0.20 0.00 93 1011.6
20260503222506 57 215 2.6 4.3 0.00 0.20 0.00 93 1011.6
20260503222007 57 215 1.7 2.6 0.00 0.20 0.00 93 1011.6
20260503220006 57 215 1.7 2.6 0.00 0.20 0.00 93 1011.3
20260503215506 57 215 1.7 4.3 0.00 0.20 0.20 93 1011.3
20260503215007 57 215 1.7 4.3 0.00 0.20 0.20 93 1011.3
20260503213006 57 215 1.7 4.3 0.00 0.24 0.20 93 1011.4
20260503212506 57 215 1.7 4.3 0.00 0.25 0.20 92 1011.4
20260503212007 57 215 1.7 2.6 0.00 0.26 0.20 92 1011.4
20260503211506 57 215 0.9 2.6 0.00 0.28 0.20 92 1011.3
20260503211007 57 215 0.9 7.0 0.00 0.29 0.20 92 1011.2
20260503210006 57 215 1.7 5.2 0.00 0.48 0.20 92 1011.3
20260503204506 58 215 1.7 4.3 0.00 0.57 0.20 91 1011.3
20260503204006 58 215 2.6 7.0 0.00 0.57 0.20 91 1011.4
20260503202506 58 236 2.6 7.0 0.00 0.57 0.20 90 1011.2
20260503202007 58 236 2.6 6.1 0.00 0.57 0.20 90 1011.2
20260503201506 58 236 2.6 5.2 0.00 0.57 0.20 90 1011.2
20260503201006 58 236 3.5 6.1 0.00 0.57 0.20 90 1011.1
20260503200006 58 236 2.6 4.3 0.00 0.57 0.20 90 1011.1
20260503195506 59 236 1.7 5.2 0.00 0.57 0.20 91 1011.0
20260503195006 59 236 0.9 2.6 0.00 0.57 0.20 90 1010.8
20260503194506 59 236 1.7 4.3 0.00 0.57 0.20 90 1010.8
20260503194006 59 236 1.7 4.3 0.00 0.57 0.20 89 1010.7
20260503193506 59 236 1.7 4.3 0.00 0.57 0.20 89 1010.6
20260503192006 59 236 1.7 4.3 0.00 0.57 0.20 88 1010.6
20260503191506 59 236 2.6 5.2 0.00 0.57 0.20 88 1010.5
20260503191006 59 236 1.7 6.1 0.00 0.57 0.20 88 1010.3
20260503190006 60 236 3.5 6.1 0.00 0.57 0.20 88 1010.3
20260503185505 60 236 2.6 4.3 0.00 0.57 0.20 89 1010.4
20260503184506 60 236 4.3 7.0 0.00 0.57 0.20 89 1010.3
20260503183506 60 236 1.7 2.6 0.00 0.57 0.20 89 1010.1
20260503182006 60 236 1.7 2.6 0.00 0.57 0.20 88 1010.1
20260503180006 60 236 1.7 6.1 0.00 0.57 0.20 86 1009.9
20260503175505 60 236 1.7 5.2 0.00 0.57 0.20 86 1010.0
20260503175006 60 236 1.7 7.8 0.00 0.57 0.20 86 1009.9
20260503174506 60 236 2.6 7.0 0.00 0.57 0.20 86 1009.9
20260503174005 61 236 2.6 7.0 0.00 0.57 0.20 87 1009.9
20260503173506 61 239 1.7 6.1 0.00 0.57 0.20 87 1009.7
20260503173006 61 259 0.9 4.3 0.00 0.57 0.20 87 1009.6
20260503172505 61 263 4.3 7.0 0.00 0.57 0.20 86 1009.6
20260503171505 61 243 2.6 6.1 0.00 0.57 0.20 85 1009.6
20260503171006 61 223 2.6 7.8 0.00 0.57 0.20 85 1009.7
20260503131005 59 244 1.7 5.2 0.00 0.57 0.20 89 1010.5
20260503081508 60 208 3.5 7.0 0.00 0.48 0.10 92 1010.2
20260503081009 60 213 3.5 6.1 0.00 0.48 0.10 92 1010.2
20260503071508 59 114 2.6 2.6 0.00 0.48 0.10 95 1010.1
20260503071008 59 114 2.6 6.1 0.00 0.48 0.10 95 1010.0
20260503052507 57 111 2.6 6.1 0.00 0.49 0.09 95 1010.1
20260503052008 57 111 1.7 6.1 0.00 0.49 0.09 95 1010.2
20260503051508 57 111 1.7 7.0 0.00 0.49 0.09 95 1010.1
20260503051007 57 111 1.7 7.0 0.00 0.49 0.09 95 1010.2
20260503050008 57 111 2.6 4.3 0.00 0.49 0.09 95 1010.3
20260503045508 57 111 1.7 4.3 0.00 0.49 0.09 95 1010.3
20260503045008 57 111 1.7 2.6 0.00 0.49 0.09 95 1010.3
20260503042007 57 111 1.7 2.6 0.00 0.49 0.09 95 1010.6
20260503041008 57 111 0.9 4.3 0.00 0.49 0.09 95 1010.6
20260503040008 57 111 1.7 2.6 0.01 0.49 0.09 95 1010.4